Hourly Data Report for December 11, 2020

FORT GOOD HOPE CS
NORTHWEST TERRITORIES
Current Station Operator: ECCC - MSC

66°14'32.044" N
128°38'39.081" W
81.70 m
2201450
71491
ZGH

Download Data

Hourly Data (December 2020)
Hourly Data Report for December 11, 2020
TIME
LST
Temp Definition
°C
Dew Point Definition
°C
Rel Hum Definition
%
Precip. Amount Definition
mm

Wind Dir Definition
10's deg

Wind Spd Definition
km/h
Visibility Definition
km
Stn Press Definition
kPa
Hmdx Definition


Wind Chill Definition


Weather Definition


00:00 -19.4 -22.2 79 0.0 8 7   101.85   -25 LegendNANA
01:00 -19.6 -22.4 78 0.0 7 8   101.86   -26 LegendNANA
02:00 -19.7 -22.5 79 0.0 6 5   101.89   -24 LegendNANA
03:00 -19.8 -22.6 78 0.0 6 7   101.89   -25 LegendNANA
04:00 -19.7 -22.5 79 0.0 7 9   101.92   -26 LegendNANA
05:00 -19.6 -22.5 78 0.0 7 11   101.96   -27 LegendNANA
06:00 -19.7 -22.6 78 0.0 8 8   101.98   -26 LegendNANA
07:00 -19.9 -22.7 79 0.0 6 8   102.02   -26 LegendNANA
08:00 -20.0 -22.8 78 0.0 4 4   102.09   -23 LegendNANA
09:00 -20.1 -22.9 78 0.0 4 4   102.14   -24 LegendNANA
10:00 -20.0 -22.9 78 0.0 7 4   102.20   -23 LegendNANA
11:00 -19.9 -22.8 78 0.0 5 4   102.29   -23 LegendNANA
12:00 -19.9 -22.8 78 0.0 5 3   102.35   -22 LegendNANA
13:00 -20.1 -23.0 77 0.0 4 2   102.41   -22 LegendNANA
14:00 -20.4 -23.4 77 0.0 4 2   102.48   -22 LegendNANA
15:00 -21.1 -24.0 78 0.0 2 3   102.55   -24 LegendNANA
16:00 -21.8 -24.6 78 0.0 5 3   102.61   -25 LegendNANA
17:00 -23.7 -26.5 78 0.0 36 5   102.68   -28 LegendNANA
18:00 -25.2 -28.0 77 0.0 1 6   102.73   -31 LegendNANA
19:00 -27.7 -30.6 76 0.0 2 2   102.78   -30 LegendNANA
20:00 -29.0 -32.2 74 0.0 9 4   102.84   -33 LegendNANA
21:00 -28.7 -31.8 75 0.0 6 4   102.89   -33 LegendNANA
22:00 -31.2 -34.4 73 0.0 2 2   102.93   -34 LegendNANA
23:00 -31.4 -34.6 73 0.0 4 3   102.98   -35 LegendNANA

Notes on Data Quality.

Legend

  • E = Estimated
  • M = Missing
  • NA = Not Available*
  • [empty] = Indicates an unobserved value
Date modified: